This demonstration page uses our WeatherBlox Daily Observations layout. Learn more.

38.88101, -77.10428

Hourly Observations for June 9, 2015

Temp ( °F °C ) Dew Point ( °F °C ) Humidity (%) Winds ( mph kmh ) Pressure ( in mb ) Visibility ( mi km ) Precip ( " mm )
12:52 am 00:52 Cloudy 75 23.9 68 20 79 79 S 14 22 29.79 1009 10 16.0934 0 0
1:52 am 01:52 Cloudy 74 23.3 67 19.4 79 79 S 15 24 29.77 1008 10 16.0934 0 0
2:39 am 02:39 Cloudy 73 23 66 19 78 78 S 14 22 29.77 1008 10 16.0934 0 0
2:52 am 02:52 Cloudy 73 22.8 67 19.4 81 81 SSW 14 22 29.76 1008 10 16.0934 0 0
3:52 am 03:52 Cloudy 73 22.8 67 19.4 81 81 SSW 13 20 29.75 1008 10 16.0934 0 0
4:25 am 04:25 Cloudy 73 23 66 19 78 78 SSW 10 17 29.74 1007 10 16.0934 0 0
4:52 am 04:52 Cloudy 72 22.2 66 18.9 82 82 S 13 20 29.75 1008 10 16.0934 0 0
5:52 am 05:52 Mostly Cloudy 72 22.2 66 18.9 82 82 SSW 12 19 29.75 1008 10 16.0934 0 0
6:52 am 06:52 Cloudy 72 22.2 66 18.9 82 82 SSW 10 17 29.76 1008 10 16.0934 0 0
7:52 am 07:52 Cloudy 73 22.8 67 19.4 81 81 SSW 12 19 29.77 1008 10 16.0934 0 0
8:08 am 08:08 Mostly Cloudy 73 23 66 19 78 78 SSW 13 20 29.77 1008 10 16.0934 0 0
8:52 am 08:52 Mostly Cloudy 75 23.9 66 18.9 74 74 SW 12 19 29.77 1008 10 16.0934 0 0
9:52 am 09:52 Mostly Cloudy 79 26.1 67 19.4 67 67 SW 10 17 29.76 1008 10 16.0934 0 0
10:52 am 10:52 Mostly Cloudy 82 27.8 66 18.9 58 58 SW 9 15 29.75 1008 10 16.0934 0 0
11:15 am 11:15 Mostly Cloudy 82 28 63 17 51 51 WSW 17 28 29.77 1008 10 16.0934 0 0
11:52 am 11:52 Mostly Cloudy 85 29.4 65 18.3 51 51 WSW 12 19 29.75 1008 10 16.0934 0 0
12:52 pm 12:52 Mostly Cloudy 86 30 61 16.1 43 43 W 13 20 29.75 1008 10 16.0934 0 0
1:52 pm 13:52 Mostly Cloudy 87 30.6 61 16.1 42 42 W 12 19 29.75 1007 10 16.0934 0 0
2:52 pm 14:52 Mostly Cloudy 88 31.1 57 13.9 35 35 WNW 13 20 29.74 1007 10 16.0934 0 0
3:52 pm 15:52 Mostly Cloudy 87 30.6 57 13.9 36 36 WNW 12 19 29.74 1007 10 16.0934 0 0
4:52 pm 16:52 Mostly Cloudy 87 30.6 56 13.3 35 35 W 9 15 29.74 1007 10 16.0934 0 0
5:52 pm 17:52 Mostly Cloudy 87 30.6 57 13.9 36 36 WNW 8 13 29.74 1007 10 16.0934 0 0
6:52 pm 18:52 Mostly Cloudy 84 28.9 58 14.4 41 41 NNW 14 22 29.76 1008 10 16.0934 0 0
6:54 pm 18:54 Mostly Cloudy 84 29 57 14 40 40 NNW 12 19 29.77 1008 10 16.0934 0 0
7:52 pm 19:52 Mostly Cloudy 83 28.3 54 12.2 37 37 NW 9 15 29.78 1009 10 16.0934 0 0
8:52 pm 20:52 Partly Cloudy 81 27.2 54 12.2 39 39 NW 15 24 29.79 1009 10 16.0934 0 0
9:52 pm 21:52 Partly Cloudy 80 26.7 55 12.8 42 42 NW 9 15 29.82 1010 10 16.0934 0 0
10:52 pm 22:52 Mostly Cloudy 80 26.7 55 12.8 42 42 WNW 14 22 29.84 1010 10 16.0934 0 0
11:52 pm 23:52 Mostly Cloudy 78 25.6 55 12.8 45 45 NW 12 19 29.84 1011 10 16.0934 0 0

Powered by AerisWeather